Location: Newark
(49.8969°N, 3.3422°E)
Time: 01:29:35
(UTC+00:00)

Explorer 7 - Pass Details

Date: 31 January 2020
Orbit: 485 x 679 km, 50.3° (Epoch: 25 February)

Event Time Altitude Azimuth Distance (km) Brightness Sun altitude
Rises 19:44:20 0° 213° (SSW) 2,636 10.6 -29.9°
Enters shadow 19:45:22 - 208° (SSW) 2,253 10.2 -30.1°
Reaches altitude 10° 19:46:53 10° 198° (SSW) 1,723 - -30.3°
Maximum altitude 19:50:00 23° 145° (SE) 1,086 - -30.8°
Drops below altitude 10° 19:53:03 10° 91° (E) 1,681 - -31.3°
Sets 19:55:29 0° 77° (ENE) 2,555 - -31.7°
